Home   Weather   Repentigny   Past weeks

Flag for Canada Past Weather in Repentigny, Quebec, Canada — Yesterday and Last 2 Weeks

Now
23 °F

Cold.


Feels Like: 23 °F
Forecast: 27 / 35 °F
Wind: 2 mph from Northwest

Location: L'Assomption Airport

Current Time: Jan 18, 2017 at 9:43:42 pm

Latest Report: Jan 18, 2017 at 9:00 pm


Visibility: N/A

Pressure: 29.99 "Hg

Humidity: 98%

Dew Point: 23 °F

Location of RepentignyLocation

Past Weather in Repentigny — Graph

°F

Repentigny Temperature Yesterday

Maximum temperature yesterday: 31 °F (at 12:00 am)
Minimum temperature yesterday: 21 °F (at 11:00 pm)
Average temperature yesterday: 26 °F

High & Low Weather Summary for the Past Weeks

 TemperatureHumidityPressure
High41 °F (Jan 11, 11:00 pm)100% (Jan 4, 1:00 am)30.84 "Hg (Jan 4, 1:00 am)
Low-16 °F (Jan 8, 4:00 am)44% (Jan 13, 2:00 pm)29.28 "Hg (Jan 4, 5:00 pm)
Average16 °F81%30.16 "Hg
* Reported Jan 3 8:00 pm — Jan 18 8:00 pm, Repentigny, Weather by CustomWeather, © 2017

Note: Actual official high and low records may vary slightly from our data, if they occured in-between our weather recording intervals... More about our weather records

Advertising

Repentigny Weather History for the Previous 24 Hours

Scroll right to see more
 ConditionsComfort  
Time TempWeatherWind HumidityBarometerVisibility
8:00 pm
Wed, Jan 18
24 °FCold.3 mph98%30.00 "HgN/A
7:00 pm24 °FCold.2 mph100%30.00 "HgN/A
6:00 pm24 °FCold.3 mph100%29.99 "HgN/A
5:00 pm24 °FCold.5 mph100%30.00 "HgN/A
4:00 pm26 °FChilly.5 mph91%29.99 "HgN/A
3:00 pm24 °FCold.5 mph98%29.98 "HgN/A
2:00 pm24 °FCold.5 mph96%29.97 "HgN/A
1:00 pm22 °FCold.7 mph96%29.97 "HgN/A
12:00 pm22 °FCold.5 mph96%29.98 "HgN/A
11:00 am21 °FCold.8 mph95%30.01 "HgN/A
10:00 am21 °FCold.7 mph94%30.02 "HgN/A
9:00 am21 °FCold.7 mph94%30.01 "HgN/A
8:00 am21 °FCold.7 mph93%30.00 "HgN/A
7:00 am21 °FCold.7 mph94%30.01 "HgN/A
6:00 am22 °FCold.7 mph96%30.01 "HgN/A
5:00 am21 °FCold.9 mph95%30.01 "HgN/A
4:00 am21 °FCold.7 mph96%30.01 "HgN/A
3:00 am20 °FCold.6 mph94%30.02 "HgN/A
2:00 am20 °FCold.10 mph95%30.04 "HgN/A
1:00 am19 °FCold.7 mph93%30.06 "HgN/A
12:00 am19 °FCold.6 mph87%30.08 "HgN/A
11:00 pm
Tue, Jan 17
21 °FCold.7 mph70%30.10 "HgN/A
10:00 pm22 °FCold.8 mph68%30.11 "HgN/A
9:00 pm22 °FCold.7 mph76%30.11 "HgN/A
Weather by CustomWeather, © 2017

See weather overviewHow to use our weather pages